#timestamp,LO_Frequency,Hit,StdDev 
1545228015.5,286047002.1,N
1545228035.4,286047002.4,N
1545228055.2,286047001.6,N
1545228075.0,286047001.8,N
1545228075.9,286047001.8,N
1545228095.8,286046999.8,N
1545228115.6,286047001.1,N
1545228135.4,286046996.8,N
1545228155.3,286046997.1,N
1545228175.1,286046997.1,N
1545228195.9,286046999.1,N
1545228215.7,286046998.4,N
1545228235.5,286047000.7,N
1545228255.4,286047000.5,N
1545228275.2,286047000.7,N
1545228295.0,286047001.1,N
1545228295.9,286047001.1,N
1545228315.8,286047011.9,Y
1545228335.6,286047000.8,P
1545228355.5,286047000.6,N
1545228375.3,286046999.3,N
1545228395.1,286046999.4,N
1545228415.9,286046998.8,N
1545228435.7,286046999.5,N
1545228455.5,286047002.1,Y
1545228475.4,286047003.9,P
1545228495.2,286047003.3,N
1545228515.1,286047002.6,N
1545228516.0,286047002.6,N
1545228535.8,286047002.7,N
1545228555.6,286047000.1,N
1545228575.5,286047003.9,N
1545228595.3,286047005.9,Y
1545228615.1,286047001.5,P
1545228635.9,286047002.1,P
1545228655.7,286047000.4,N
1545228675.6,286047003.9,Y
1545228695.4,286047000.4,P
1545228715.2,286047001.0,N
1545228735.1,286047003.8,P
1545228736.0,286047003.8,N
1545228755.8,286047001.6,N
1545228775.6,286047004.1,Y
1545228795.5,286047003.8,P
1545228815.3,286047002.6,N
1545228835.2,286047004.4,P
1545228855.9,286047005.8,Y
1545228875.7,286047001.4,P
1545228895.6,286047001.6,N
1545228915.4,286047000.9,N
1545228935.2,286046998.9,N
1545228955.1,286047000.3,N
1545228956.0,286047000.3,N
1545228975.8,286047002.6,N
1545228995.7,286047001.4,N
1545229015.5,286047004.3,Y
1545229035.3,286047002.1,P
1545229055.2,286047001.8,P
1545229075.9,286047002.6,P
1545229095.7,286047002.3,Y
1545229115.6,286047000.6,P
1545229135.4,286046999.7,N
1545229155.3,286047001.5,N
1545229175.1,286047000.3,N
1545229176.0,286047000.3,N
1545229195.8,286046999.7,N
1545229215.7,286046998.7,N
1545229235.5,286046999.5,N
1545229255.3,286047002.0,N
1545229275.2,286047002.6,N
1545229295.0,286047004.4,Y
1545229295.9,286047004.4,P
1545229315.8,286046998.6,N
1545229335.6,286046996.7,N
1545229355.4,286047001.1,N
1545229375.3,286047000.8,N
1545229395.1,286046998.4,N
1545229415.8,286046999.1,N
1545229435.7,286046996.9,N
1545229455.5,286046996.3,N
1545229475.3,286046994.6,N
1545229495.2,286046991.8,Y
1545229515.0,286046993.9,P
1545229515.9,286046993.9,N
1545229535.8,286046994.2,N
1545229555.6,286046992.4,Y
1545229575.4,286046997.8,P
1545229595.3,286046995.8,P
1545229615.1,286046995.6,P
1545229635.9,286046996.4,Y
1545229655.7,286047000.4,P
1545229675.5,286047000.3,N
1545229695.4,286047002.1,N
1545229715.2,286047002.3,N
1545229735.0,286047002.8,N
1545229735.9,286047002.8,N
1545229755.8,286047001.2,N
1545229775.6,286047000.5,N
1545229795.5,286047000.5,N
1545229815.3,286046997.3,N
1545229835.1,286046999.4,N
1545229855.9,286046999.3,N
1545229875.7,286046999.1,N
1545229895.5,286046998.4,N
1545229915.4,286046998.4,N
1545229935.2,286046998.6,N
1545229955.0,286046998.1,N
1545229955.9,286046998.1,N
1545229975.8,286046999.0,N
1545229995.6,286047000.7,N
1545230015.5,286047000.5,N
1545230035.3,286046998.1,N
1545230055.1,286046996.9,N
1545230075.9,286046997.0,N
1545230095.7,286046995.2,N
1545230115.5,286046995.4,N
1545230135.4,286046995.6,N
1545230155.2,286046996.4,N
1545230175.1,286046995.9,N
1545230176.0,286046995.9,N
1545230195.8,286046993.6,N
1545230215.6,286046993.3,N
1545230235.5,286046996.2,N
1545230255.3,286046996.0,N
1545230275.1,286046995.7,N
1545230295.9,286046993.7,N
1545230315.7,286046994.1,N
1545230335.6,286046996.3,N
1545230355.4,286046993.7,Y
1545230375.2,286046996.8,P
1545230395.1,286046998.5,P
1545230396.0,286046998.5,N
1545230415.8,286046999.5,N
1545230435.6,286046998.9,N
1545230455.5,286046996.6,Y
1545230475.3,286046998.5,P
1545230495.2,286047000.0,N
1545230515.9,286047000.0,N
1545230535.7,286046998.9,N
1545230555.6,286047001.2,N
1545230575.4,286047001.1,N
1545230595.2,286047000.6,N
1545230615.1,286047004.0,Y
1545230616.0,286047004.0,P
1545230635.8,286047002.4,N
1545230655.6,286047001.1,N
1545230675.5,286046999.9,N
1545230695.3,286047001.1,N
1545230715.2,286047000.3,N
1545230735.9,286047000.7,N
1545230755.7,286047000.3,N
1545230775.6,286047000.5,N
1545230795.4,286047002.0,N
1545230815.2,286046999.8,N
1545230835.1,286047001.1,N
1545230836.0,286047001.1,N
1545230855.8,286047000.6,N
1545230875.7,286047000.5,N
1545230895.5,286046998.2,N
1545230915.3,286047000.9,N
1545230935.2,286047000.4,N
1545230955.0,286046998.5,N
1545230955.9,286046998.5,N
1545230975.7,286046996.5,N
1545230995.6,286046999.4,N
1545231015.4,286046997.0,N
1545231035.3,286046998.3,N
1545231055.1,286046998.3,N
1545231056.0,286046998.3,N
1545231075.8,286047001.2,N
1545231095.7,286046998.1,N
1545231115.5,286046998.6,N
1545231135.3,286046998.1,N
1545231155.2,286046998.6,N
1545231175.0,286046998.6,N
1545231175.9,286046998.6,N
1545231195.8,286047001.2,N
1545231215.6,286046998.7,N
1545231235.4,286046998.1,N
1545231255.3,286046999.1,N
1545231275.1,286046999.6,N
1545231276.0,286046999.6,N
1545231295.8,286046999.4,N
1545231315.7,286047000.8,N
1545231335.5,286047001.1,N
1545231355.3,286046998.2,N
1545231375.2,286047000.8,N
1545231395.0,286046998.6,N
1545231395.9,286046998.6,N
1545231415.8,286046998.1,N
1545231435.6,286047002.8,N
1545231455.4,286047001.8,N
1545231475.3,286047001.5,N
1545231495.1,286046999.9,N
1545231515.8,286047000.8,N
1545231535.7,286047001.2,N
1545231555.5,286046998.4,N
1545231575.4,286046999.0,N
1545231595.2,286047000.9,N
